contact:dominique.lefevre@mio.osupytheas.fr, maurice.libes@osupytheas.fr, didier.mallarino@osupytheas.fr
Project:EMSO http://www.emso-fr.org/EMSO-France
Depth: 2436.0 m
Title:EMSO Ligure Ouest : Data MII capteur MICROCAT
DateTime_Computer,Latitude,Longitude,Temperature,Conductivity,Pressure,DateTime_Instrument
DateTime_Computer,Latitude,Longitude,degC,S m-1,dbar,DateTime_Instrument
2019-07-14T00:02:02Z,42.805,6.029,13.2955,4.59953,2469.83,2019-7-14T02:02:20Z
2019-07-14T00:05:05Z,42.805,6.029,13.2957,4.59956,2469.83,2019-7-14T02:05:23Z
2019-07-14T00:08:08Z,42.805,6.029,13.2956,4.59953,2469.853,2019-7-14T02:08:27Z
2019-07-14T00:11:12Z,42.805,6.029,13.2955,4.59954,2469.821,2019-7-14T02:11:30Z
2019-07-14T00:14:15Z,42.805,6.029,13.2955,4.59954,2469.83,2019-7-14T02:14:33Z
2019-07-14T00:17:18Z,42.805,6.029,13.2954,4.59954,2469.844,2019-7-14T02:17:36Z
2019-07-14T00:20:22Z,42.805,6.029,13.2958,4.59954,2469.844,2019-7-14T02:20:40Z
2019-07-14T00:23:25Z,42.805,6.029,13.2957,4.59954,2469.806,2019-7-14T02:23:43Z
2019-07-14T00:26:28Z,42.805,6.029,13.2958,4.59953,2469.876,2019-7-14T02:26:46Z
2019-07-14T00:29:31Z,42.805,6.029,13.2958,4.59952,2469.853,2019-7-14T02:29:50Z
2019-07-14T00:32:35Z,42.805,6.029,13.2955,4.59952,2469.83,2019-7-14T02:32:53Z
2019-07-14T00:35:38Z,42.805,6.029,13.2954,4.59953,2469.83,2019-7-14T02:35:56Z
2019-07-14T00:38:41Z,42.805,6.029,13.2958,4.59953,2469.844,2019-7-14T02:38:59Z
2019-07-14T00:41:44Z,42.805,6.029,13.2956,4.59956,2469.844,2019-7-14T02:42:03Z
2019-07-14T00:44:48Z,42.805,6.029,13.2958,4.59952,2469.844,2019-7-14T02:45:06Z
2019-07-14T00:47:51Z,42.805,6.029,13.2955,4.59953,2469.853,2019-7-14T02:48:09Z
2019-07-14T00:50:54Z,42.805,6.029,13.2957,4.59957,2469.83,2019-7-14T02:51:12Z
2019-07-14T00:53:58Z,42.805,6.029,13.2957,4.59954,2469.853,2019-7-14T02:54:16Z
2019-07-14T00:57:01Z,42.805,6.029,13.2958,4.59953,2469.853,2019-7-14T02:57:19Z
2019-07-14T01:00:04Z,42.805,6.029,13.2958,4.59954,2469.844,2019-7-14T03:00:22Z
2019-07-14T01:03:07Z,42.805,6.029,13.2959,4.59952,2469.853,2019-7-14T03:03:26Z
2019-07-14T01:06:11Z,42.805,6.029,13.2956,4.59953,2469.867,2019-7-14T03:06:29Z
2019-07-14T01:09:14Z,42.805,6.029,13.2954,4.59955,2469.844,2019-7-14T03:09:32Z
2019-07-14T01:12:17Z,42.805,6.029,13.2957,4.59954,2469.867,2019-7-14T03:12:35Z
2019-07-14T01:15:20Z,42.805,6.029,13.2957,4.59953,2469.821,2019-7-14T03:15:39Z
2019-07-14T01:18:24Z,42.805,6.029,13.2953,4.59953,2469.867,2019-7-14T03:18:42Z
2019-07-14T01:21:27Z,42.805,6.029,13.2957,4.59953,2469.806,2019-7-14T03:21:45Z
2019-07-14T01:24:30Z,42.805,6.029,13.2961,4.59954,2469.867,2019-7-14T03:24:49Z
2019-07-14T01:27:34Z,42.805,6.029,13.2957,4.59954,2469.853,2019-7-14T03:27:52Z
2019-07-14T01:30:37Z,42.805,6.029,13.2957,4.59955,2469.821,2019-7-14T03:30:55Z
2019-07-14T01:33:40Z,42.805,6.029,13.2957,4.59955,2469.844,2019-7-14T03:33:59Z
2019-07-14T01:36:44Z,42.805,6.029,13.2958,4.59954,2469.876,2019-7-14T03:37:02Z
2019-07-14T01:39:47Z,42.805,6.029,13.2955,4.59952,2469.821,2019-7-14T03:40:05Z
2019-07-14T01:42:50Z,42.805,6.029,13.2957,4.59953,2469.867,2019-7-14T03:43:08Z
2019-07-14T01:45:53Z,42.805,6.029,13.2956,4.59953,2469.867,2019-7-14T03:46:12Z
2019-07-14T01:48:57Z,42.805,6.029,13.2957,4.59953,2469.853,2019-7-14T03:49:15Z
2019-07-14T01:52:00Z,42.805,6.029,13.2956,4.59953,2469.867,2019-7-14T03:52:18Z
2019-07-14T01:55:03Z,42.805,6.029,13.2957,4.59953,2469.821,2019-7-14T03:55:22Z
2019-07-14T01:58:07Z,42.805,6.029,13.2953,4.59953,2469.867,2019-7-14T03:58:25Z
2019-07-14T02:01:10Z,42.805,6.029,13.2958,4.59952,2469.853,2019-7-14T04:01:28Z
2019-07-14T02:04:13Z,42.805,6.029,13.2956,4.59953,2469.876,2019-7-14T04:04:31Z
2019-07-14T02:07:16Z,42.805,6.029,13.2957,4.59953,2469.853,2019-7-14T04:07:35Z
2019-07-14T02:10:20Z,42.805,6.029,13.2958,4.59953,2469.876,2019-7-14T04:10:38Z
2019-07-14T02:13:23Z,42.805,6.029,13.2956,4.59954,2469.83,2019-7-14T04:13:41Z
2019-07-14T02:16:26Z,42.805,6.029,13.2958,4.59953,2469.89,2019-7-14T04:16:45Z
2019-07-14T02:19:30Z,42.805,6.029,13.2957,4.59953,2469.853,2019-7-14T04:19:48Z
2019-07-14T02:22:33Z,42.805,6.029,13.2958,4.59953,2469.876,2019-7-14T04:22:51Z
2019-07-14T02:25:36Z,42.805,6.029,13.2955,4.59954,2469.89,2019-7-14T04:25:54Z
2019-07-14T02:28:39Z,42.805,6.029,13.2958,4.59953,2469.89,2019-7-14T04:28:57Z
2019-07-14T02:31:42Z,42.805,6.029,13.2958,4.59953,2469.876,2019-7-14T04:32:01Z
2019-07-14T02:34:45Z,42.805,6.029,13.2959,4.59954,2469.89,2019-7-14T04:35:04Z
2019-07-14T02:37:49Z,42.805,6.029,13.2957,4.59954,2469.876,2019-7-14T04:38:07Z
2019-07-14T02:40:52Z,42.805,6.029,13.2956,4.59954,2469.89,2019-7-14T04:41:10Z
2019-07-14T02:43:55Z,42.805,6.029,13.2958,4.59953,2469.83,2019-7-14T04:44:13Z
2019-07-14T02:46:58Z,42.805,6.029,13.2961,4.59954,2469.876,2019-7-14T04:47:17Z
2019-07-14T02:50:02Z,42.805,6.029,13.2956,4.59953,2469.876,2019-7-14T04:50:20Z
2019-07-14T02:53:05Z,42.805,6.029,13.2960,4.59953,2469.876,2019-7-14T04:53:23Z
2019-07-14T02:56:08Z,42.805,6.029,13.2957,4.59953,2469.9,2019-7-14T04:56:26Z
2019-07-14T02:59:11Z,42.805,6.029,13.2953,4.59954,2469.876,2019-7-14T04:59:29Z
2019-07-14T03:02:14Z,42.805,6.029,13.2957,4.59956,2469.89,2019-7-14T05:02:33Z
2019-07-14T03:05:17Z,42.805,6.029,13.2956,4.59954,2469.876,2019-7-14T05:05:36Z
2019-07-14T03:08:21Z,42.805,6.029,13.2956,4.59954,2469.914,2019-7-14T05:08:39Z
2019-07-14T03:11:24Z,42.805,6.029,13.2956,4.59953,2469.867,2019-7-14T05:11:42Z
2019-07-14T03:14:27Z,42.805,6.029,13.2954,4.59954,2469.914,2019-7-14T05:14:45Z
2019-07-14T03:17:30Z,42.805,6.029,13.2958,4.59953,2469.876,2019-7-14T05:17:48Z
2019-07-14T03:20:33Z,42.805,6.029,13.2957,4.59953,2469.876,2019-7-14T05:20:52Z
2019-07-14T03:23:37Z,42.805,6.029,13.2958,4.59953,2469.937,2019-7-14T05:23:55Z
2019-07-14T03:26:40Z,42.805,6.029,13.2958,4.59954,2469.914,2019-7-14T05:26:58Z
2019-07-14T03:29:43Z,42.805,6.029,13.2958,4.59954,2469.9,2019-7-14T05:30:01Z
2019-07-14T03:32:46Z,42.805,6.029,13.2956,4.59954,2469.876,2019-7-14T05:33:05Z
2019-07-14T03:35:49Z,42.805,6.029,13.2958,4.59954,2469.9,2019-7-14T05:36:08Z
2019-07-14T03:38:53Z,42.805,6.029,13.2957,4.59954,2469.914,2019-7-14T05:39:11Z
2019-07-14T03:41:56Z,42.805,6.029,13.2954,4.59954,2469.9,2019-7-14T05:42:14Z
2019-07-14T03:44:59Z,42.805,6.029,13.2961,4.59954,2469.9,2019-7-14T05:45:17Z
2019-07-14T03:48:02Z,42.805,6.029,13.2957,4.59955,2469.937,2019-7-14T05:48:20Z
2019-07-14T03:51:05Z,42.805,6.029,13.2958,4.59954,2469.9,2019-7-14T05:51:24Z
2019-07-14T03:54:09Z,42.805,6.029,13.2958,4.59953,2469.89,2019-7-14T05:54:27Z
2019-07-14T03:57:12Z,42.805,6.029,13.2954,4.59955,2469.9,2019-7-14T05:57:30Z
2019-07-14T04:00:15Z,42.805,6.029,13.2951,4.59954,2469.914,2019-7-14T06:00:33Z
2019-07-14T04:03:18Z,42.805,6.029,13.2960,4.59954,2469.876,2019-7-14T06:03:36Z
2019-07-14T04:06:21Z,42.805,6.029,13.2957,4.59953,2469.923,2019-7-14T06:06:40Z
2019-07-14T04:09:24Z,42.805,6.029,13.2957,4.59953,2469.923,2019-7-14T06:09:43Z
2019-07-14T04:12:28Z,42.805,6.029,13.2957,4.59954,2469.923,2019-7-14T06:12:46Z
2019-07-14T04:15:31Z,42.805,6.029,13.2960,4.59954,2469.937,2019-7-14T06:15:49Z
2019-07-14T04:18:34Z,42.805,6.029,13.2957,4.59953,2469.937,2019-7-14T06:18:53Z
2019-07-14T04:21:38Z,42.805,6.029,13.2957,4.59955,2469.923,2019-7-14T06:21:56Z
2019-07-14T04:24:41Z,42.805,6.029,13.2958,4.59955,2469.923,2019-7-14T06:24:59Z
2019-07-14T04:27:44Z,42.805,6.029,13.2959,4.59954,2469.937,2019-7-14T06:28:03Z
2019-07-14T04:30:47Z,42.805,6.029,13.2960,4.59955,2469.923,2019-7-14T06:31:06Z
2019-07-14T04:33:51Z,42.805,6.029,13.2959,4.59954,2469.876,2019-7-14T06:34:09Z
2019-07-14T04:36:54Z,42.805,6.029,13.2957,4.59953,2469.923,2019-7-14T06:37:12Z
2019-07-14T04:39:57Z,42.805,6.029,13.2957,4.59955,2469.9,2019-7-14T06:40:16Z
2019-07-14T04:43:01Z,42.805,6.029,13.2955,4.59953,2469.937,2019-7-14T06:43:19Z
2019-07-14T04:46:04Z,42.805,6.029,13.2953,4.59954,2469.923,2019-7-14T06:46:22Z
2019-07-14T04:49:07Z,42.805,6.029,13.2957,4.59955,2469.96,2019-7-14T06:49:26Z
2019-07-14T04:52:11Z,42.805,6.029,13.2957,4.59954,2469.923,2019-7-14T06:52:29Z
2019-07-14T04:55:14Z,42.805,6.029,13.2954,4.59955,2469.947,2019-7-14T06:55:32Z
2019-07-14T04:58:17Z,42.805,6.029,13.2957,4.59954,2469.923,2019-7-14T06:58:35Z
2019-07-14T05:01:20Z,42.805,6.029,13.2958,4.59955,2469.9,2019-7-14T07:01:39Z
2019-07-14T05:04:24Z,42.805,6.029,13.2955,4.59954,2469.923,2019-7-14T07:04:42Z
2019-07-14T05:07:27Z,42.805,6.029,13.2958,4.59954,2469.96,2019-7-14T07:07:45Z
2019-07-14T05:10:30Z,42.805,6.029,13.2958,4.59954,2469.914,2019-7-14T07:10:49Z
2019-07-14T05:13:34Z,42.805,6.029,13.2957,4.59954,2469.914,2019-7-14T07:13:52Z
2019-07-14T05:16:37Z,42.805,6.029,13.2959,4.59954,2469.923,2019-7-14T07:16:55Z
2019-07-14T05:19:40Z,42.805,6.029,13.2958,4.59954,2469.96,2019-7-14T07:19:58Z
2019-07-14T05:22:43Z,42.805,6.029,13.2959,4.59954,2469.947,2019-7-14T07:23:02Z
2019-07-14T05:25:47Z,42.805,6.029,13.2954,4.59954,2469.937,2019-7-14T07:26:05Z
2019-07-14T05:28:50Z,42.805,6.029,13.2958,4.59954,2469.96,2019-7-14T07:29:08Z
2019-07-14T05:31:53Z,42.805,6.029,13.2958,4.59954,2469.96,2019-7-14T07:32:12Z
2019-07-14T05:34:57Z,42.805,6.029,13.2958,4.59954,2469.937,2019-7-14T07:35:15Z
2019-07-14T05:38:00Z,42.805,6.029,13.2960,4.59954,2469.923,2019-7-14T07:38:18Z
2019-07-14T05:41:03Z,42.805,6.029,13.2956,4.59954,2469.914,2019-7-14T07:41:21Z
2019-07-14T05:44:06Z,42.805,6.029,13.2955,4.59954,2469.937,2019-7-14T07:44:25Z
2019-07-14T05:47:10Z,42.805,6.029,13.2958,4.59954,2469.914,2019-7-14T07:47:28Z
2019-07-14T05:50:13Z,42.805,6.029,13.2954,4.59954,2469.937,2019-7-14T07:50:31Z
2019-07-14T05:53:16Z,42.805,6.029,13.2954,4.59954,2469.923,2019-7-14T07:53:35Z
2019-07-14T05:56:20Z,42.805,6.029,13.2958,4.59954,2469.923,2019-7-14T07:56:38Z
2019-07-14T05:59:23Z,42.805,6.029,13.2954,4.59956,2469.923,2019-7-14T07:59:41Z
2019-07-14T06:02:26Z,42.805,6.029,13.2956,4.59956,2469.914,2019-7-14T08:02:44Z
2019-07-14T06:05:29Z,42.805,6.029,13.2960,4.59954,2469.923,2019-7-14T08:05:48Z
2019-07-14T06:08:33Z,42.805,6.029,13.2957,4.59954,2469.937,2019-7-14T08:08:51Z
2019-07-14T06:11:36Z,42.805,6.029,13.2956,4.59954,2469.923,2019-7-14T08:11:54Z
2019-07-14T06:14:39Z,42.805,6.029,13.2958,4.59954,2469.937,2019-7-14T08:14:58Z
2019-07-14T06:17:43Z,42.805,6.029,13.2957,4.59954,2469.923,2019-7-14T08:18:01Z
2019-07-14T06:20:46Z,42.805,6.029,13.2957,4.59956,2469.914,2019-7-14T08:21:04Z
2019-07-14T06:23:49Z,42.805,6.029,13.2957,4.59958,2469.937,2019-7-14T08:24:08Z
2019-07-14T06:26:53Z,42.805,6.029,13.2954,4.59954,2469.9,2019-7-14T08:27:11Z
2019-07-14T06:29:56Z,42.805,6.029,13.2957,4.59955,2469.914,2019-7-14T08:30:14Z
2019-07-14T06:32:59Z,42.805,6.029,13.2961,4.59954,2469.923,2019-7-14T08:33:18Z
2019-07-14T06:36:03Z,42.805,6.029,13.2957,4.59956,2469.947,2019-7-14T08:36:21Z
2019-07-14T06:39:06Z,42.805,6.029,13.2959,4.59955,2469.923,2019-7-14T08:39:24Z
2019-07-14T06:42:09Z,42.805,6.029,13.2958,4.59954,2469.914,2019-7-14T08:42:28Z
2019-07-14T06:45:13Z,42.805,6.029,13.2958,4.59955,2469.876,2019-7-14T08:45:31Z
2019-07-14T06:48:16Z,42.805,6.029,13.2956,4.59954,2469.9,2019-7-14T08:48:34Z
2019-07-14T06:51:19Z,42.805,6.029,13.2954,4.59956,2469.9,2019-7-14T08:51:38Z
2019-07-14T06:54:23Z,42.805,6.029,13.2957,4.59954,2469.937,2019-7-14T08:54:41Z
2019-07-14T06:57:26Z,42.805,6.029,13.2953,4.59954,2469.9,2019-7-14T08:57:44Z
2019-07-14T07:00:29Z,42.805,6.029,13.2954,4.59954,2469.9,2019-7-14T09:00:47Z
2019-07-14T07:03:32Z,42.805,6.029,13.2958,4.59954,2469.89,2019-7-14T09:03:51Z
2019-07-14T07:06:36Z,42.805,6.029,13.2957,4.59954,2469.9,2019-7-14T09:06:54Z
2019-07-14T07:09:39Z,42.805,6.029,13.2956,4.59954,2469.914,2019-7-14T09:09:57Z
2019-07-14T07:12:42Z,42.805,6.029,13.2958,4.59953,2469.914,2019-7-14T09:13:01Z
2019-07-14T07:15:46Z,42.805,6.029,13.2958,4.59954,2469.876,2019-7-14T09:16:04Z
2019-07-14T07:18:49Z,42.805,6.029,13.2957,4.59954,2469.89,2019-7-14T09:19:07Z
2019-07-14T07:21:52Z,42.805,6.029,13.2954,4.59955,2469.9,2019-7-14T09:22:10Z
2019-07-14T07:24:55Z,42.805,6.029,13.2953,4.59954,2469.876,2019-7-14T09:25:13Z
2019-07-14T07:27:58Z,42.805,6.029,13.2958,4.59953,2469.9,2019-7-14T09:28:17Z
2019-07-14T07:31:02Z,42.805,6.029,13.2957,4.59954,2469.89,2019-7-14T09:31:20Z
2019-07-14T07:34:05Z,42.805,6.029,13.2955,4.59954,2469.867,2019-7-14T09:34:23Z
2019-07-14T07:37:08Z,42.805,6.029,13.2956,4.59953,2469.89,2019-7-14T09:37:27Z
2019-07-14T07:40:12Z,42.805,6.029,13.2961,4.59954,2469.886,2019-7-14T09:40:30Z
2019-07-14T07:43:15Z,42.805,6.029,13.2956,4.59954,2469.914,2019-7-14T09:43:33Z
2019-07-14T07:46:18Z,42.805,6.029,13.2957,4.59956,2469.876,2019-7-14T09:46:37Z
2019-07-14T07:49:22Z,42.805,6.029,13.2953,4.59955,2469.876,2019-7-14T09:49:40Z
2019-07-14T07:52:25Z,42.805,6.029,13.2958,4.59954,2469.853,2019-7-14T09:52:43Z
2019-07-14T07:55:28Z,42.805,6.029,13.2958,4.59953,2469.853,2019-7-14T09:55:46Z
2019-07-14T07:58:32Z,42.805,6.029,13.2954,4.59953,2469.876,2019-7-14T09:58:50Z
2019-07-14T08:01:35Z,42.805,6.029,13.2958,4.59954,2469.867,2019-7-14T10:01:53Z
2019-07-14T08:04:38Z,42.805,6.029,13.2956,4.59952,2469.89,2019-7-14T10:04:56Z
2019-07-14T08:07:41Z,42.805,6.029,13.2958,4.59954,2469.844,2019-7-14T10:08:00Z
2019-07-14T08:10:45Z,42.805,6.029,13.2954,4.59954,2469.876,2019-7-14T10:11:03Z
2019-07-14T08:13:48Z,42.805,6.029,13.2955,4.59952,2469.9,2019-7-14T10:14:06Z
2019-07-14T08:16:51Z,42.805,6.029,13.2958,4.59953,2469.867,2019-7-14T10:17:09Z
2019-07-14T08:19:54Z,42.805,6.029,13.2957,4.59954,2469.867,2019-7-14T10:20:13Z
2019-07-14T08:22:58Z,42.805,6.029,13.2957,4.59954,2469.844,2019-7-14T10:23:16Z
2019-07-14T08:26:01Z,42.805,6.029,13.2957,4.59956,2469.83,2019-7-14T10:26:19Z
2019-07-14T08:29:04Z,42.805,6.029,13.2959,4.59953,2469.853,2019-7-14T10:29:23Z
2019-07-14T08:32:08Z,42.805,6.029,13.2959,4.59953,2469.853,2019-7-14T10:32:26Z
2019-07-14T08:35:11Z,42.805,6.029,13.2957,4.59953,2469.83,2019-7-14T10:35:29Z
2019-07-14T08:38:14Z,42.805,6.029,13.2956,4.59953,2469.83,2019-7-14T10:38:32Z
2019-07-14T08:41:18Z,42.805,6.029,13.2957,4.59959,2469.867,2019-7-14T10:41:36Z
2019-07-14T08:44:21Z,42.805,6.029,13.2956,4.59954,2469.806,2019-7-14T10:44:39Z
2019-07-14T08:47:24Z,42.805,6.029,13.2956,4.59953,2469.844,2019-7-14T10:47:42Z
2019-07-14T08:50:27Z,42.805,6.029,13.2957,4.59952,2469.844,2019-7-14T10:50:46Z
2019-07-14T08:53:31Z,42.805,6.029,13.2956,4.59953,2469.844,2019-7-14T10:53:49Z
2019-07-14T08:56:34Z,42.805,6.029,13.2957,4.59952,2469.844,2019-7-14T10:56:52Z
2019-07-14T08:59:37Z,42.805,6.029,13.2952,4.59954,2469.844,2019-7-14T10:59:56Z
2019-07-14T09:02:41Z,42.805,6.029,13.2957,4.59960,2469.821,2019-7-14T11:02:59Z
2019-07-14T09:05:44Z,42.805,6.029,13.2957,4.59953,2469.844,2019-7-14T11:06:02Z
2019-07-14T09:08:47Z,42.805,6.029,13.2956,4.59953,2469.83,2019-7-14T11:09:06Z
2019-07-14T09:11:51Z,42.805,6.029,13.2958,4.59952,2469.83,2019-7-14T11:12:09Z
2019-07-14T09:14:54Z,42.805,6.029,13.2957,4.59953,2469.83,2019-7-14T11:15:12Z
2019-07-14T09:17:57Z,42.805,6.029,13.2957,4.59953,2469.806,2019-7-14T11:18:16Z
2019-07-14T09:21:00Z,42.805,6.029,13.2958,4.59956,2469.806,2019-7-14T11:21:19Z
2019-07-14T09:24:04Z,42.805,6.029,13.2957,4.59953,2469.783,2019-7-14T11:24:22Z
2019-07-14T09:27:07Z,42.805,6.029,13.2960,4.59954,2469.783,2019-7-14T11:27:25Z
2019-07-14T09:30:10Z,42.805,6.029,13.2954,4.59953,2469.83,2019-7-14T11:30:29Z
2019-07-14T09:33:14Z,42.805,6.029,13.2957,4.59954,2469.806,2019-7-14T11:33:32Z
2019-07-14T09:36:17Z,42.805,6.029,13.2957,4.59954,2469.83,2019-7-14T11:36:35Z
2019-07-14T09:39:20Z,42.805,6.029,13.2955,4.59952,2469.844,2019-7-14T11:39:39Z
2019-07-14T09:42:24Z,42.805,6.029,13.2956,4.59952,2469.821,2019-7-14T11:42:42Z
2019-07-14T09:45:27Z,42.805,6.029,13.2953,4.59952,2469.806,2019-7-14T11:45:45Z
2019-07-14T09:48:30Z,42.805,6.029,13.2953,4.59953,2469.821,2019-7-14T11:48:48Z
2019-07-14T09:51:34Z,42.805,6.029,13.2957,4.59952,2469.797,2019-7-14T11:51:52Z
2019-07-14T09:54:37Z,42.805,6.029,13.2958,4.59953,2469.844,2019-7-14T11:54:55Z
2019-07-14T09:57:40Z,42.805,6.029,13.2956,4.59953,2469.783,2019-7-14T11:57:58Z
2019-07-14T10:00:44Z,42.805,6.029,13.2954,4.59952,2469.806,2019-7-14T12:01:02Z
2019-07-14T10:03:47Z,42.805,6.029,13.2959,4.59952,2469.806,2019-7-14T12:04:05Z
2019-07-14T10:06:50Z,42.805,6.029,13.2957,4.59953,2469.783,2019-7-14T12:07:09Z
2019-07-14T10:09:54Z,42.805,6.029,13.2953,4.59952,2469.806,2019-7-14T12:10:12Z
2019-07-14T10:12:57Z,42.805,6.029,13.2958,4.59952,2469.773,2019-7-14T12:13:15Z
2019-07-14T10:16:00Z,42.805,6.029,13.2958,4.59953,2469.76,2019-7-14T12:16:18Z
2019-07-14T10:19:04Z,42.805,6.029,13.2954,4.59954,2469.783,2019-7-14T12:19:22Z
2019-07-14T10:22:07Z,42.805,6.029,13.2957,4.59952,2469.783,2019-7-14T12:22:25Z
2019-07-14T10:25:10Z,42.805,6.029,13.2953,4.59953,2469.783,2019-7-14T12:25:29Z
2019-07-14T10:28:14Z,42.805,6.029,13.2957,4.59953,2469.783,2019-7-14T12:28:32Z
2019-07-14T10:31:17Z,42.805,6.029,13.2956,4.59956,2469.76,2019-7-14T12:31:35Z
2019-07-14T10:34:20Z,42.805,6.029,13.2957,4.59960,2469.806,2019-7-14T12:34:39Z
2019-07-14T10:37:24Z,42.805,6.029,13.2954,4.59952,2469.783,2019-7-14T12:37:42Z
2019-07-14T10:40:27Z,42.805,6.029,13.2952,4.59953,2469.76,2019-7-14T12:40:45Z
2019-07-14T10:43:30Z,42.805,6.029,13.2957,4.59952,2469.769,2019-7-14T12:43:48Z
2019-07-14T10:46:34Z,42.805,6.029,13.2956,4.59952,2469.783,2019-7-14T12:46:52Z
2019-07-14T10:49:37Z,42.805,6.029,13.2952,4.59953,2469.844,2019-7-14T12:49:55Z
2019-07-14T10:52:40Z,42.805,6.029,13.2959,4.59952,2469.783,2019-7-14T12:52:59Z
2019-07-14T10:55:44Z,42.805,6.029,13.2955,4.59951,2469.76,2019-7-14T12:56:02Z
2019-07-14T10:58:47Z,42.805,6.029,13.2957,4.59952,2469.783,2019-7-14T12:59:05Z
2019-07-14T11:01:50Z,42.805,6.029,13.2954,4.59952,2469.783,2019-7-14T13:02:08Z
2019-07-14T11:04:53Z,42.805,6.029,13.2958,4.59953,2469.773,2019-7-14T13:05:12Z
2019-07-14T11:07:57Z,42.805,6.029,13.2953,4.59951,2469.76,2019-7-14T13:08:15Z
2019-07-14T11:11:00Z,42.805,6.029,13.2953,4.59952,2469.76,2019-7-14T13:11:18Z
2019-07-14T11:14:03Z,42.805,6.029,13.2951,4.59953,2469.783,2019-7-14T13:14:22Z
2019-07-14T11:17:07Z,42.805,6.029,13.2957,4.59953,2469.797,2019-7-14T13:17:25Z
2019-07-14T11:20:10Z,42.805,6.029,13.2953,4.59952,2469.773,2019-7-14T13:20:28Z
2019-07-14T11:23:13Z,42.805,6.029,13.2953,4.59954,2469.783,2019-7-14T13:23:32Z
2019-07-14T11:26:16Z,42.805,6.029,13.2955,4.59954,2469.76,2019-7-14T13:26:35Z
2019-07-14T11:29:20Z,42.805,6.029,13.2956,4.59951,2469.773,2019-7-14T13:29:38Z
2019-07-14T11:32:23Z,42.805,6.029,13.2953,4.59954,2469.76,2019-7-14T13:32:41Z
2019-07-14T11:35:26Z,42.805,6.029,13.2957,4.59952,2469.75,2019-7-14T13:35:45Z
2019-07-14T11:38:30Z,42.805,6.029,13.2954,4.59953,2469.773,2019-7-14T13:38:48Z
2019-07-14T11:41:33Z,42.805,6.029,13.2954,4.59952,2469.76,2019-7-14T13:41:51Z
2019-07-14T11:44:36Z,42.805,6.029,13.2957,4.59952,2469.76,2019-7-14T13:44:54Z
2019-07-14T11:47:39Z,42.805,6.029,13.2958,4.59954,2469.75,2019-7-14T13:47:58Z
2019-07-14T11:50:43Z,42.805,6.029,13.2956,4.59953,2469.76,2019-7-14T13:51:01Z
2019-07-14T11:53:46Z,42.805,6.029,13.2953,4.59955,2469.783,2019-7-14T13:54:04Z
2019-07-14T11:56:49Z,42.805,6.029,13.2957,4.59952,2469.75,2019-7-14T13:57:08Z
2019-07-14T11:59:52Z,42.805,6.029,13.2958,4.59954,2469.806,2019-7-14T14:00:11Z
2019-07-14T12:02:56Z,42.805,6.029,13.2955,4.59953,2469.76,2019-7-14T14:03:14Z
2019-07-14T12:05:59Z,42.805,6.029,13.2958,4.59954,2469.76,2019-7-14T14:06:17Z
2019-07-14T12:09:02Z,42.805,6.029,13.2958,4.59952,2469.783,2019-7-14T14:09:21Z
2019-07-14T12:12:06Z,42.805,6.029,13.2958,4.59961,2469.76,2019-7-14T14:12:24Z
2019-07-14T12:15:09Z,42.805,6.029,13.2954,4.59952,2469.773,2019-7-14T14:15:27Z
2019-07-14T12:18:12Z,42.805,6.029,13.2956,4.59952,2469.76,2019-7-14T14:18:30Z
2019-07-14T12:21:15Z,42.805,6.029,13.2955,4.59953,2469.773,2019-7-14T14:21:34Z
2019-07-14T12:24:19Z,42.805,6.029,13.2954,4.59952,2469.76,2019-7-14T14:24:37Z
2019-07-14T12:27:22Z,42.805,6.029,13.2957,4.59952,2469.76,2019-7-14T14:27:40Z
2019-07-14T12:30:25Z,42.805,6.029,13.2957,4.59952,2469.737,2019-7-14T14:30:44Z
2019-07-14T12:33:29Z,42.805,6.029,13.2957,4.59953,2469.737,2019-7-14T14:33:47Z
2019-07-14T12:36:32Z,42.805,6.029,13.2954,4.59952,2469.76,2019-7-14T14:36:50Z
2019-07-14T12:39:35Z,42.805,6.029,13.2952,4.59952,2469.75,2019-7-14T14:39:54Z
2019-07-14T12:42:39Z,42.805,6.029,13.2954,4.59954,2469.76,2019-7-14T14:42:57Z
2019-07-14T12:45:42Z,42.805,6.029,13.2957,4.59953,2469.797,2019-7-14T14:46:00Z
2019-07-14T12:48:45Z,42.805,6.029,13.2954,4.59953,2469.783,2019-7-14T14:49:03Z
2019-07-14T12:51:48Z,42.805,6.029,13.2956,4.59953,2469.773,2019-7-14T14:52:07Z
2019-07-14T12:54:52Z,42.805,6.029,13.2956,4.59952,2469.76,2019-7-14T14:55:10Z
2019-07-14T12:57:55Z,42.805,6.029,13.2957,4.59952,2469.76,2019-7-14T14:58:13Z
2019-07-14T13:00:58Z,42.805,6.029,13.2957,4.59952,2469.737,2019-7-14T15:01:17Z
2019-07-14T13:04:02Z,42.805,6.029,13.2957,4.59954,2469.773,2019-7-14T15:04:20Z
2019-07-14T13:07:05Z,42.805,6.029,13.2953,4.59951,2469.75,2019-7-14T15:07:23Z
2019-07-14T13:10:08Z,42.805,6.029,13.2956,4.59951,2469.783,2019-7-14T15:10:26Z
2019-07-14T13:13:11Z,42.805,6.029,13.2953,4.59951,2469.783,2019-7-14T15:13:30Z
2019-07-14T13:16:15Z,42.805,6.029,13.2958,4.59951,2469.797,2019-7-14T15:16:33Z
2019-07-14T13:19:18Z,42.805,6.029,13.2953,4.59952,2469.783,2019-7-14T15:19:37Z
2019-07-14T13:22:22Z,42.805,6.029,13.2953,4.59953,2469.783,2019-7-14T15:22:40Z
2019-07-14T13:25:25Z,42.805,6.029,13.2957,4.59954,2469.76,2019-7-14T15:25:43Z
2019-07-14T13:28:28Z,42.805,6.029,13.2958,4.59952,2469.783,2019-7-14T15:28:46Z
2019-07-14T13:31:31Z,42.805,6.029,13.2958,4.59951,2469.783,2019-7-14T15:31:50Z
2019-07-14T13:34:35Z,42.805,6.029,13.2957,4.59954,2469.797,2019-7-14T15:34:53Z
2019-07-14T13:37:38Z,42.805,6.029,13.2957,4.59953,2469.844,2019-7-14T15:37:56Z
2019-07-14T13:40:41Z,42.805,6.029,13.2953,4.59952,2469.783,2019-7-14T15:40:59Z
2019-07-14T13:43:45Z,42.805,6.029,13.2952,4.59954,2469.821,2019-7-14T15:44:03Z
2019-07-14T13:46:48Z,42.805,6.029,13.2953,4.59954,2469.783,2019-7-14T15:47:06Z
2019-07-14T13:49:51Z,42.805,6.029,13.2956,4.59954,2469.83,2019-7-14T15:50:09Z
2019-07-14T13:52:54Z,42.805,6.029,13.2957,4.59954,2469.783,2019-7-14T15:53:13Z
2019-07-14T13:55:58Z,42.805,6.029,13.2958,4.59954,2469.797,2019-7-14T15:56:16Z
2019-07-14T13:59:01Z,42.805,6.029,13.2955,4.59955,2469.783,2019-7-14T15:59:19Z
2019-07-14T14:02:04Z,42.805,6.029,13.2954,4.59954,2469.76,2019-7-14T16:02:23Z
2019-07-14T14:05:08Z,42.805,6.029,13.2958,4.59952,2469.797,2019-7-14T16:05:26Z
2019-07-14T14:08:11Z,42.805,6.029,13.2952,4.59954,2469.83,2019-7-14T16:08:29Z
2019-07-14T14:11:14Z,42.805,6.029,13.2957,4.59953,2469.821,2019-7-14T16:11:32Z
2019-07-14T14:14:17Z,42.805,6.029,13.2957,4.59956,2469.797,2019-7-14T16:14:36Z
2019-07-14T14:17:21Z,42.805,6.029,13.2953,4.59953,2469.83,2019-7-14T16:17:39Z
2019-07-14T14:20:24Z,42.805,6.029,13.2957,4.59954,2469.83,2019-7-14T16:20:42Z
2019-07-14T14:23:27Z,42.805,6.029,13.2956,4.59953,2469.806,2019-7-14T16:23:46Z
2019-07-14T14:26:31Z,42.805,6.029,13.2957,4.59954,2469.821,2019-7-14T16:26:49Z
2019-07-14T14:29:34Z,42.805,6.029,13.2955,4.59954,2469.867,2019-7-14T16:29:52Z
2019-07-14T14:32:37Z,42.805,6.029,13.2957,4.59953,2469.83,2019-7-14T16:32:56Z
2019-07-14T14:35:41Z,42.805,6.029,13.2955,4.59956,2469.844,2019-7-14T16:35:59Z
2019-07-14T14:38:44Z,42.805,6.029,13.2957,4.59954,2469.806,2019-7-14T16:39:02Z
2019-07-14T14:41:47Z,42.805,6.029,13.2958,4.59955,2469.867,2019-7-14T16:42:06Z
2019-07-14T14:44:51Z,42.805,6.029,13.2959,4.59954,2469.876,2019-7-14T16:45:09Z
2019-07-14T14:47:54Z,42.805,6.029,13.2955,4.59954,2469.89,2019-7-14T16:48:12Z
2019-07-14T14:50:57Z,42.805,6.029,13.2957,4.59957,2469.853,2019-7-14T16:51:15Z
2019-07-14T14:54:00Z,42.805,6.029,13.2958,4.59954,2469.853,2019-7-14T16:54:19Z
2019-07-14T14:57:04Z,42.805,6.029,13.2957,4.59955,2469.853,2019-7-14T16:57:22Z
2019-07-14T15:00:07Z,42.805,6.029,13.2954,4.59954,2469.806,2019-7-14T17:00:25Z
2019-07-14T15:03:10Z,42.805,6.029,13.2957,4.59955,2469.853,2019-7-14T17:03:29Z
2019-07-14T15:06:14Z,42.805,6.029,13.2955,4.59953,2469.853,2019-7-14T17:06:32Z
2019-07-14T15:09:17Z,42.805,6.029,13.2954,4.59954,2469.853,2019-7-14T17:09:35Z
2019-07-14T15:12:20Z,42.805,6.029,13.2958,4.59953,2469.876,2019-7-14T17:12:38Z
2019-07-14T15:15:24Z,42.805,6.029,13.2956,4.59952,2469.886,2019-7-14T17:15:42Z